World > North America > United States > Michigan

Hourly Rankin, MI Regional Weather

Feedback E-mail the Weather

Quick WX

Rankin, MI Weather Maps

°F °C°F °C
Rankin Weather Map
UTC Time: 7/1/2022, 01:08
Your Time:

Rankin, MI Regional Weather

Expires:202207010200;;467461
ASUS43 KDTX 010101
RWRMI 
MICHIGAN HOURLY REGIONAL WEATHER ROUNDUP
NATIONAL WEATHER SERVICE DETROIT/PONTIAC MI
900 PM EDT THU JUN 30 2022

NOTE: "FAIR" INDICATES FEW OR NO CLOUDS BELOW 12,000 FEET WITH NO
SIGNIFICANT WEATHER AND/OR OBSTRUCTION TO VISIBILITY.


MIZ047>049-052>055-059>063-066>070-074>076-081>083-010200-
SOUTHEAST LOWER MICHIGAN
  
CITY           SKY/WX    TMP DP  RH WIND       PRES   REMARKS
ADRIAN         CLEAR     83  52  34 W3        29.99S                  
ALMA           CLEAR     81  53  37 SW5       29.94F                  
ANN ARBOR      CLEAR     76  56  49 SW5       29.98F                  
BAD AXE        CLEAR     78  55  45 SE5       29.94S                  
CARO           CLEAR     76  58  52 SW3       29.95S                  
DETROIT CITY   PTCLDY    86  50  28 S6        29.98S                  
DETROIT        PTCLDY    83  56  39 S6        29.98F                  
FLINT          CLEAR     81  56  42 SW6       29.97S                  
GROSSE ILE     PTCLDY    77  68  73 S6        29.97F                  
HILLSDALE      CLOUDY    76  52  44 SW3       30.01S                  
HOWELL         CLEAR     81  49  32 S3        29.98F                  

CITY           SKY/WX    TMP DP  RH WIND       PRES   REMARKS
JACKSON        CLEAR     78  53  41 S3        29.99F                  
LAMBERTVILLE   CLEAR     85  53  33 CALM      29.98S                  
LANSING        CLEAR     81  55  40 S6        29.97S                  
LAPEER         CLEAR     79  55  44 S3        29.97S                  
MASON          CLEAR     82  52  35 CALM      29.98S                  
MONROE         PTCLDY    83  55  39 SW5       29.98S                  
MT. CLEMENS    MOCLDY    78  64  60 S9        29.94F                  
PONTIAC        MOCLDY    83  50  31 S5        29.98F                  
PORT HOPE        N/A     82  32  16 VRB5      29.90F                  
PORT HURON     PTCLDY    75  57  53 S5        29.97F                  
TRI CITIES     CLEAR     81  59  47 SW7       29.94S                  
MIDLAND        CLEAR     82  55  39 S6        29.91F                  
TROY           CLEAR     86  37  17 SW6       30.00S                  
SAGINAW HB     CLEAR     81  55  41 SW7       29.94S                  
$$

SKY/WX - Weather  TMP - Temperature  DP - Dew Point  RH - Humidity
WIND - Wind Direction/Speed PRES - Barometric Pressure VSB - Visibility
WCI - Wind Chill Index E13G22 Wind - East Wind 13 mph/Gusts of 22 mph

Trending Headlines

Rankin Radar Loop



Rankin Quick Facts


National Two Day Weather Forecast


E-mail the Rankin Weather Forecast

Voice your opinion or tell us about page issues...